Weather History for KP53 - August, 2013

Change the Weather History Date:

Saturday, August 17, 2013

  Actual Average (KISQ) Record (KISQ)
Temperature  
Mean Temperature 70 °F -  
Max Temperature 81 °F 73 °F 84 °F (1955)
Min Temperature 60 °F 52 °F 39 °F (1962)
Cooling Degree Days 6    
Growing Degree Days 20 (Base 50)    
Moisture  
Dew Point 55 °F    
Average Humidity 59    
Maximum Humidity 78    
Minimum Humidity 40    
Precipitation  
Precipitation 0.00 in - - ()
Sea Level Pressure  
Sea Level Pressure 30.16 in    
Wind  
Wind Speed 7 mph (SSW)    
Max Wind Speed 12 mph    
Max Gust Speed 17 mph    
Averages and records for this station are not official NWS values.
T = Trace of Precipitation, MM = Missing Value Source: NWS Daily Summary

Daily Weather History Graph

Daily Weather History Graph

Search for Another Location

Airport or City:

Trip Planner

Search our weather history database for the weather conditions in past years. The results will help you decide how hot, cold, wet, or windy it might be!

Date:

Astronomy

Aug. 17, 2013 Rise Set
Actual Time 6:48 AM EDT 8:52 PM EDT
Civil Twilight 6:15 AM EDT 9:24 PM EDT
Nautical Twilight 5:34 AM EDT 10:04 PM EDT
Astronomical Twilight 4:49 AM EDT 10:49 PM EDT
Moon 6:13 PM EDT (8/17) 2:43 AM EDT (8/17)
Length of Visible Light 15h 09m
Length of Day
14h 04m
Waxing Gibbous, 84% of the Moon is Illuminated
Aug 17
Waxing Gibbous
Aug 20
Full
Aug 28
Last Quarter
Sep 5
New
Sep 12
First Quarter

Hourly Weather History & Observations

Time (EDT) Temp. Heat Index Dew Point Humidity Pressure Visibility Wind Dir Wind Speed Gust Speed Precip Events Conditions
12:56 AM 64.9 °F - 53.1 °F 65% 30.16 in - SSW 6.9 mph - N/A   Unknown
1:56 AM 64.9 °F - 53.1 °F 65% 30.16 in - SSW 6.9 mph - N/A   Unknown
2:56 AM 63.0 °F - 53.1 °F 70% 30.16 in - SSW 6.9 mph - N/A   Unknown
3:56 AM 63.0 °F - 53.1 °F 70% 30.16 in - SSW 9.2 mph - N/A   Unknown
4:56 AM 62.1 °F - 53.1 °F 72% 30.17 in - SSW 10.4 mph - N/A   Unknown
5:56 AM 61.0 °F - 53.1 °F 75% 30.17 in - SSW 9.2 mph - N/A   Unknown
6:56 AM 60.1 °F - 53.1 °F 78% 30.17 in - SSW 9.2 mph - N/A   Unknown
7:56 AM 61.0 °F - 53.1 °F 75% 30.19 in - South 9.2 mph - N/A   Unknown
8:56 AM 66.0 °F - 55.0 °F 68% 30.19 in - SSW 8.1 mph - N/A   Unknown
9:56 AM 71.1 °F - 57.0 °F 61% 30.20 in - South 5.8 mph - N/A   Unknown
10:56 AM 75.9 °F - 57.9 °F 54% 30.20 in - Calm Calm - N/A   Unknown
11:56 AM 75.9 °F - 61.0 °F 60% 30.19 in - NE 6.9 mph - N/A   Unknown
12:56 PM 73.9 °F - 59.0 °F 59% 30.18 in - NE 6.9 mph - N/A   Unknown
1:56 PM 78.1 °F - 57.9 °F 50% 30.17 in - North 4.6 mph - N/A   Unknown
2:56 PM 75.9 °F - 59.0 °F 56% 30.15 in - NE 9.2 mph - N/A   Unknown
3:56 PM 75.0 °F - 59.0 °F 57% 30.14 in - NNE 11.5 mph - N/A   Unknown
4:56 PM 75.9 °F - 59.0 °F 56% 30.13 in - NNE 6.9 mph - N/A   Unknown
5:56 PM 81.0 °F 80.7 °F 55.0 °F 41% 30.12 in - SW 6.9 mph 17.3 mph N/A   Unknown
6:56 PM 80.1 °F 80.0 °F 54.0 °F 40% 30.12 in - SSW 5.8 mph - N/A   Unknown
7:56 PM 78.1 °F - 52.0 °F 40% 30.12 in - SSW 8.1 mph 16.1 mph N/A   Unknown
8:56 PM 73.9 °F - 52.0 °F 46% 30.12 in - SSW 5.8 mph - N/A   Unknown
9:56 PM 71.1 °F - 54.0 °F 55% 30.12 in - SSW 5.8 mph - N/A   Unknown
10:56 PM 69.1 °F - 52.0 °F 54% 30.13 in - SSW 5.8 mph - N/A   Unknown
11:56 PM 68.0 °F - 51.1 °F 55% 30.13 in - SSW 6.9 mph - N/A   Unknown